Back to catalog

BRAZILSAT B4

AliveCommunicationsGEO
NORAD 26469·PAYLOAD·🇧🇷 Brazil

Launched Aug 17, 2000 from Guiana Space Centre

Loading…

TLE

FreshSource: Space-Track

Epoch: Sep 14, 2026, 12:30 UTC

1 26469U 00046A   26257.52134854 -.00000070  00000-0  00000-0 0  9999
2 26469   9.4732  57.9750 0005781 198.8913 117.1109  0.99167911 95644

Track BRAZILSAT B4 in real time with AllMySat

Download on the App Store